This is the latest recevied weather packets stored in our database for station/object LU3HGB-WX. If no packets are shown the sender has not sent any weather packets the latest 10 day(s).
| Time | Temp. | Humidity | Pressure | Rain* | Wind** | Luminosity | Snow |
|---|---|---|---|---|---|---|---|
| 1778012259 | 24.44° C | 51% | 1011 hPa | 0 mm | - | 198 W/m² | - |
| 1778011959 | 23.89° C | 52% | 1011 hPa | 0 mm | - | 215 W/m² | - |
| 1778011659 | 23.89° C | 51% | 1011 hPa | 0 mm | - | 231 W/m² | - |
| 1778011360 | 24.44° C | 52% | 1010 hPa | 0 mm | - | 251 W/m² | - |
| 1778011060 | 24.44° C | 51% | 1010 hPa | 0 mm | - | 266 W/m² | - |
| 1778010759 | 24.44° C | 51% | 1010 hPa | 0 mm | - | 283 W/m² | - |
| 1778010459 | 24.44° C | 52% | 1010 hPa | 0 mm | - | 300 W/m² | - |
| 1778010160 | 24.44° C | 52% | 1010 hPa | 0 mm | - | 317 W/m² | - |
| 1778009860 | 25° C | 50% | 1010 hPa | 0 mm | - | 334 W/m² | - |
| 1778009560 | 25° C | 48% | 1010 hPa | 0 mm | - | 354 W/m² | - |
| 1778009260 | 24.44° C | 49% | 1011 hPa | 0 mm | - | 366 W/m² | - |
| 1778008960 | 24.44° C | 48% | 1011 hPa | 0 mm | - | 383 W/m² | - |
| 1778008660 | 24.44° C | 50% | 1011 hPa | 0 mm | - | 400 W/m² | - |
| 1778008359 | 24.44° C | 50% | 1011 hPa | 0 mm | - | 415 W/m² | - |
| 1778008060 | 23.89° C | 52% | 1011 hPa | 0 mm | - | 431 W/m² | - |
| 1778007760 | 24.44° C | 51% | 1011 hPa | 0 mm | - | 449 W/m² | - |
| 1778007460 | 24.44° C | 53% | 1011 hPa | 0 mm | - | 463 W/m² | - |
| 1778007159 | 24.44° C | 49% | 1011 hPa | 0 mm | - | 475 W/m² | - |
| 1778006859 | 24.44° C | 51% | 1011 hPa | 0 mm | - | 490 W/m² | - |
| 1778006559 | 24.44° C | 52% | 1011 hPa | 0 mm | - | 504 W/m² | - |
| 1778006259 | 25° C | 49% | 1011 hPa | 0 mm | - | 518 W/m² | - |
| 1778005960 | 25° C | 51% | 1011 hPa | 0 mm | - | 534 W/m² | - |
| 1778005659 | 25° C | 51% | 1011 hPa | 0 mm | - | 544 W/m² | - |
| 1778005360 | 25° C | 49% | 1011 hPa | 0 mm | - | 558 W/m² | - |
| 1778005059 | 25° C | 49% | 1011 hPa | 0 mm | - | 569 W/m² | - |
* Rain latest hour (hover to see other rain measurements)
** Current wind speed in m/s (hover to see current wind gust speed)